• In Germany
  • List of Countries
  • For 7 days
  • Water Temperature
  • Satellite Maps
  • Weather Map
  • Weather Widgets
  • user-avatar
    Login

    Hourly Weather Ksenzovschina

    Today, 19 August, Sunday

    Time Temperature Precipitation Wind Pressure Humidity
    00:00 +18°C° 0 mm 3 mps 749 mmHg 85%
    01:00 +17°C° 0 mm 3 mps 749 mmHg 85%
    02:00 +17°C° 0 mm 3 mps 749 mmHg 85%
    03:00 +17°C° 0.1 mm 3 mps 749 mmHg 86%
    04:00 +16°C° 0.1 mm 3 mps 749 mmHg 87%
    05:00 +16°C° 0.1 mm 3 mps 749 mmHg 87%
    06:00 +17°C° 0.1 mm 3 mps 749 mmHg 85%
    07:00 +19°C° 0.1 mm 4 mps 749 mmHg 83%
    08:00 +20°C° 0.1 mm 4 mps 749 mmHg 80%
    09:00 +21°C° 0.2 mm 4 mps 749 mmHg 76%
    10:00 +23°C° 0.2 mm 4 mps 749 mmHg 72%
    11:00 +25°C° 0.2 mm 4 mps 749 mmHg 68%
    12:00 +25°C° 0.7 mm 4 mps 748 mmHg 67%
    13:00 +26°C° 0.7 mm 4 mps 748 mmHg 66%
    14:00 +26°C° 0.7 mm 4 mps 748 mmHg 66%
    15:00 +26°C° 0.4 mm 4 mps 748 mmHg 69%
    16:00 +26°C° 0.4 mm 3 mps 748 mmHg 72%
    17:00 +26°C° 0.4 mm 3 mps 747 mmHg 75%
    18:00 +24°C° 0.2 mm 2 mps 747 mmHg 79%
    19:00 +21°C° 0.2 mm 2 mps 747 mmHg 84%
    20:00 +20°C° 0.2 mm 2 mps 747 mmHg 88%
    21:00 +19°C° 0 mm 2 mps 747 mmHg 89%
    22:00 +18°C° 0 mm 2 mps 747 mmHg 89%
    23:00 +17°C° 0 mm 2 mps 747 mmHg 90%

    Tomorrow, 20 August, Monday

    Time Temperature Precipitation Wind Pressure Humidity
    00:00 +17°C° 0 mm 2 mps 747 mmHg 89%
    01:00 +16°C° 0 mm 2 mps 747 mmHg 89%
    02:00 +15°C° 0 mm 1 mps 747 mmHg 88%
    03:00 +15°C° 0 mm 1 mps 747 mmHg 89%
    04:00 +15°C° 0 mm 1 mps 747 mmHg 89%
    05:00 +15°C° 0 mm 1 mps 747 mmHg 90%
    06:00 +16°C° 0 mm 1 mps 747 mmHg 86%
    07:00 +19°C° 0 mm 1 mps 747 mmHg 83%
    08:00 +20°C° 0 mm 1 mps 747 mmHg 79%
    09:00 +22°C° 0 mm 1 mps 747 mmHg 74%
    10:00 +23°C° 0 mm 1 mps 747 mmHg 69%
    11:00 +24°C° 0 mm 1 mps 747 mmHg 65%
    12:00 +25°C° 0 mm 2 mps 747 mmHg 64%
    13:00 +25°C° 0 mm 2 mps 746 mmHg 63%
    14:00 +26°C° 0 mm 2 mps 746 mmHg 62%
    15:00 +25°C° 0 mm 2 mps 745 mmHg 64%
    16:00 +25°C° 0 mm 2 mps 745 mmHg 67%
    17:00 +25°C° 0 mm 2 mps 745 mmHg 69%
    18:00 +24°C° 0 mm 2 mps 744 mmHg 73%
    19:00 +21°C° 0 mm 2 mps 744 mmHg 77%
    20:00 +19°C° 0 mm 2 mps 744 mmHg 82%
    21:00 +19°C° 0 mm 2 mps 744 mmHg 82%
    22:00 +19°C° 0 mm 3 mps 743 mmHg 83%
    23:00 +18°C° 0 mm 3 mps 743 mmHg 83%

    Day after tomorrow, 21 August, Tuesday

    Time Temperature Precipitation Wind Pressure Humidity
    00:00 +18°C° 0 mm 3 mps 743 mmHg 83%
    01:00 +18°C° 0 mm 4 mps 743 mmHg 83%
    02:00 +18°C° 0 mm 4 mps 742 mmHg 83%
    03:00 +18°C° 0.1 mm 4 mps 742 mmHg 85%
    04:00 +18°C° 0.1 mm 4 mps 741 mmHg 86%
    05:00 +17°C° 0.1 mm 5 mps 741 mmHg 87%
    06:00 +19°C° 0.2 mm 5 mps 741 mmHg 87%
    07:00 +19°C° 0.2 mm 5 mps 741 mmHg 88%
    08:00 +20°C° 0.2 mm 5 mps 741 mmHg 88%
    09:00 +20°C° 0.2 mm 5 mps 741 mmHg 85%
    10:00 +21°C° 0.2 mm 6 mps 741 mmHg 82%
    11:00 +21°C° 0.2 mm 6 mps 742 mmHg 79%
    12:00 +22°C° 0.1 mm 6 mps 742 mmHg 74%
    13:00 +22°C° 0.1 mm 6 mps 742 mmHg 68%
    14:00 +22°C° 0.1 mm 6 mps 742 mmHg 63%
    15:00 +22°C° 0 mm 6 mps 743 mmHg 65%
    16:00 +21°C° 0 mm 5 mps 743 mmHg 67%
    17:00 +21°C° 0 mm 4 mps 743 mmHg 69%
    18:00 +19°C° 0 mm 4 mps 744 mmHg 72%
    19:00 +18°C° 0 mm 4 mps 744 mmHg 74%
    20:00 +16°C° 0 mm 3 mps 745 mmHg 76%
    21:00 +14°C° 0 mm 3 mps 745 mmHg 76%
    22:00 +14°C° 0 mm 3 mps 746 mmHg 76%
    23:00 +13°C° 0 mm 3 mps 746 mmHg 76%

    22 August, Wednesday

    Time Temperature Precipitation Wind Pressure Humidity
    00:00 +12°C° 0 mm 3 mps 747 mmHg 77%
    01:00 +12°C° 0 mm 3 mps 747 mmHg 79%
    02:00 +11°C° 0 mm 3 mps 748 mmHg 80%
    03:00 +10°C° 0 mm 3 mps 748 mmHg 83%
    04:00 +10°C° 0 mm 3 mps 748 mmHg 85%
    05:00 +9°C° 0 mm 3 mps 749 mmHg 88%
    06:00 +11°C° 0 mm 3 mps 749 mmHg 84%
    07:00 +12°C° 0 mm 3 mps 750 mmHg 80%
    08:00 +14°C° 0 mm 3 mps 750 mmHg 76%
    09:00 +16°C° 0 mm 3 mps 750 mmHg 70%
    10:00 +17°C° 0 mm 3 mps 751 mmHg 64%
    11:00 +18°C° 0 mm 4 mps 751 mmHg 58%
    12:00 +19°C° 0 mm 4 mps 751 mmHg 57%
    13:00 +19°C° 0 mm 4 mps 751 mmHg 55%
    14:00 +20°C° 0 mm 3 mps 751 mmHg 53%
    15:00 +19°C° 0 mm 3 mps 751 mmHg 56%
    16:00 +19°C° 0 mm 3 mps 751 mmHg 59%
    17:00 +19°C° 0 mm 2 mps 751 mmHg 62%
    18:00 +17°C° 0 mm 2 mps 751 mmHg 66%
    19:00 +15°C° 0 mm 2 mps 751 mmHg 71%
    20:00 +13°C° 0 mm 1 mps 751 mmHg 76%
    21:00 +13°C° 0 mm 1 mps 751 mmHg 77%
    22:00 +12°C° 0 mm 1 mps 751 mmHg 78%
    23:00 +12°C° 0 mm 1 mps 751 mmHg 79%

    23 August, Thursday

    Time Temperature Precipitation Wind Pressure Humidity
    00:00 +11°C° 0 mm 1 mps 751 mmHg 80%
    01:00 +11°C° 0 mm 1 mps 751 mmHg 80%
    02:00 +11°C° 0 mm 1 mps 751 mmHg 81%
    03:00 +11°C° 0 mm 1 mps 751 mmHg 82%
    04:00 +10°C° 0 mm 1 mps 751 mmHg 83%
    05:00 +10°C° 0 mm 1 mps 751 mmHg 84%
    06:00 +12°C° 0 mm 2 mps 751 mmHg 80%
    07:00 +14°C° 0 mm 2 mps 751 mmHg 76%
    08:00 +16°C° 0 mm 2 mps 751 mmHg 71%
    09:00 +17°C° 0 mm 3 mps 751 mmHg 67%
    10:00 +19°C° 0 mm 3 mps 751 mmHg 62%
    11:00 +20°C° 0 mm 3 mps 750 mmHg 58%
    12:00 +21°C° 0 mm 3 mps 750 mmHg 57%
    13:00 +22°C° 0 mm 3 mps 750 mmHg 55%
    14:00 +22°C° 0 mm 3 mps 750 mmHg 54%
    15:00 +22°C° 0 mm 3 mps 749 mmHg 58%
    16:00 +23°C° 0 mm 2 mps 749 mmHg 61%
    17:00 +23°C° 0 mm 2 mps 749 mmHg 65%
    18:00 +20°C° 0 mm 2 mps 749 mmHg 69%
    19:00 +18°C° 0 mm 2 mps 749 mmHg 73%
    20:00 +16°C° 0 mm 3 mps 749 mmHg 77%
    21:00 +16°C° 0 mm 3 mps 749 mmHg 77%
    22:00 +14°C° 0 mm 3 mps 749 mmHg 77%
    23:00 +14°C° 0 mm 3 mps 749 mmHg 78%

    24 August, Friday

    Time Temperature Precipitation Wind Pressure Humidity
    00:00 +13°C° 0 mm 3 mps 749 mmHg 78%
    01:00 +14°C° 0 mm 2 mps 749 mmHg 77%
    02:00 +13°C° 0 mm 2 mps 749 mmHg 77%
    03:00 +13°C° 0 mm 2 mps 749 mmHg 78%
    04:00 +13°C° 0 mm 2 mps 749 mmHg 78%
    05:00 +12°C° 0 mm 2 mps 749 mmHg 78%
    06:00 +14°C° 0 mm 2 mps 749 mmHg 75%
    07:00 +16°C° 0 mm 3 mps 749 mmHg 72%
    08:00 +17°C° 0 mm 3 mps 749 mmHg 70%
    09:00 +19°C° 0 mm 3 mps 749 mmHg 65%
    10:00 +20°C° 0 mm 3 mps 748 mmHg 61%
    11:00 +22°C° 0 mm 4 mps 748 mmHg 56%
    12:00 +22°C° 0 mm 4 mps 748 mmHg 55%
    13:00 +23°C° 0 mm 4 mps 748 mmHg 54%
    14:00 +23°C° 0 mm 4 mps 747 mmHg 52%
    15:00 +24°C° 0 mm 3 mps 747 mmHg 56%
    16:00 +24°C° 0 mm 3 mps 747 mmHg 60%
    17:00 +23°C° 0 mm 2 mps 746 mmHg 64%
    18:00 +20°C° 0 mm 3 mps 746 mmHg 68%
    19:00 +18°C° 0 mm 3 mps 746 mmHg 71%
    20:00 +16°C° 0 mm 3 mps 746 mmHg 75%
    21:00 +16°C° 0 mm 3 mps 746 mmHg 75%
    22:00 +14°C° 0 mm 3 mps 745 mmHg 75%
    23:00 +13°C° 0 mm 3 mps 745 mmHg 76%
    Show more